カタログに戻る

MOLNIYA 3-50

運用中通信HEO
NORAD 25847·PAYLOAD·🇷🇺 Russia

打ち上げ Jul 8, 1999 から Plesetsk Cosmodrome

Loading…

次のパス (今後24時間)

TLE

最新Source: Space-Track

元期: Sep 11, 2026, 17:58 UTC

1 25847U 99036A   26254.74907002  .00000143  00000-0  00000-0 0  9999
2 25847  63.5320 146.7466 6762528 276.2706  16.6283  2.00636391199158

AllMySatでMOLNIYA 3-50をリアルタイム追跡

Download on the App Store